📊 Raw Sensor Data

Showing records 44901 to 44925 of 85,043 total

ID Distance (ft) Battery V Battery A Int Temp (°F) Int Humid (%) Ext Temp (°F) Solar V RSSI SNR Time Stamp
40155 -- 3.97 0 105 46 93 5.10 -69 9 05/09/2025 04:45 PM
40154 -- 3.97 0 107 45 92 5.10 -68 8 05/09/2025 04:30 PM
40153 -- 3.97 0 108 43 97 5.10 -69 8 05/09/2025 04:15 PM
40152 -- 3.97 0 106 43 101 5.10 -69 7 05/09/2025 04:00 PM
40151 16.3 3.97 0 104 44 92 5.10 -68 8 05/09/2025 03:45 PM
40150 16.4 3.97 0 105 43 93 5.10 -69 8 05/09/2025 03:30 PM
40149 -- 3.97 0 106 41 93 5.10 -69 8 05/09/2025 03:15 PM
40148 16.4 4.00 0 105 41 96 5.10 -69 8 05/09/2025 03:00 PM
40147 16.4 3.98 0 103 41 99 5.10 -68 8 05/09/2025 02:45 PM
40146 16.4 4.04 0 101 41 93 5.10 -68 8 05/09/2025 02:30 PM
40145 16.4 3.97 0 100 41 90 5.10 -69 8 05/09/2025 02:15 PM
40144 -- 3.97 0 100 40 91 5.20 -68 8 05/09/2025 02:00 PM
40143 -- 3.97 0 97 41 87 5.10 -69 8 05/09/2025 01:45 PM
40142 -- 3.97 0 96 41 89 5.10 -69 9 05/09/2025 01:30 PM
40141 -- 3.97 0 95 42 87 5.10 -70 8 05/09/2025 01:16 PM
40140 -- 3.97 0 95 42 87 5.10 -69 8 05/09/2025 01:00 PM
40139 -- 3.97 0 94 42 87 5.20 -69 8 05/09/2025 12:45 PM
40138 -- 4.00 0 93 42 86 5.10 -68 8 05/09/2025 12:30 PM
40137 16.4 3.97 0 93 41 90 5.10 -69 8 05/09/2025 12:15 PM
40136 -- 3.97 0 91 41 91 5.10 -69 8 05/09/2025 12:00 PM
40135 16.4 3.97 0 90 41 90 5.10 -68 8 05/09/2025 11:45 AM
40134 -- 3.97 0 88 41 87 5.10 -68 8 05/09/2025 11:30 AM
40133 -- 3.97 0 87 41 84 5.10 -69 8 05/09/2025 11:16 AM
40132 -- 3.97 0 84 41 83 5.10 -69 8 05/09/2025 11:01 AM
40131 -- 3.97 0 83 41 82 5.10 -68 9 05/09/2025 10:45 AM